Temperature
18 17 17 16 16 16 16 16 15 15 15 15 15 15 15 15 15 15 15 15 15 15 15 15 15 15 15 14 14 14 14 14 14 14 14 14 14 14 14 14 14 14 14
18 17 17 16 16 16 16 16 15 15 15 15 15 15 15 15 15 15 15 15 15 15 15 15 15 15 15 14 14 14 14 14 14 14 15 15 14 14 14 14 14 14 14
19 17 17 16 16 16 16 16 15 15 15 15 15 15 15 15 15 15 15 15 15 15 15 15 15 15 15 14 14 14 14 14 14 15 15 16 16 14 14 14 14 13 13
18 18 17 17 16 16 16 16 15 15 15 15 15 15 15 15 15 15 15 15 15 15 15 15 15 15 15 15 14 14 14 14 14 14 15 15 15 15 14 14 13 13 13
18 18 17 17 16 16 16 16 16 15 15 15 15 15 15 15 15 15 15 15 15 15 15 15 15 15 15 15 15 14 14 14 14 14 14 14 14 15 15 14 14 13 13
18 18 17 17 16 16 16 16 16 15 15 15 15 15 15 15 15 15 15 15 15 15 15 15 15 15 15 15 14 14 15 15 15 14 14 14 14 14 14 14 14 13 13
19 18 17 17 17 16 16 16 16 16 15 15 15 15 15 15 15 15 15 15 15 15 15 15 15 15 15 15 15 15 15 14 14 14 14 14 14 14 14 14 14 13 13
19 18 18 17 17 17 16 16 16 16 16 15 15 15 15 15 15 15 15 15 15 15 15 15 15 15 15 15 15 14 14 14 14 14 14 14 14 14 14 14 14 14 14
19 18 18 17 17 17 17 16 16 16 16 16 15 15 15 15 15 15 15 15 15 15 15 15 15 15 14 14 14 14 14 14 14 14 14 14 14 14 14 14 14 14 14
19 18 18 17 17 17 17 17 16 16 16 16 16 16 15 15 15 15 15 15 15 15 15 15 14 14 14 14 14 14 14 14 14 14 14 14 14 14 14 14 13 13 13
19 19 18 17 17 17 17 17 16 16 16 16 16 16 15 15 15 15 15 15 15 15 15 15 14 14 14 14 14 14 14 14 14 14 14 14 14 14 13 13 13 13 13
19 18 18 17 17 17 17 17 17 16 16 16 16 16 16 15 15 15 15 15 15 15 15 15 15 14 14 14 14 14 14 14 14 14 14 14 14 14 13 13 13 13 13
18 18 18 18 17 17 17 17 17 16 16 16 16 16 15 15 15 15 15 15 15 15 15 15 14 14 14 14 14 14 14 14 14 14 14 14 13 13 13 13 13 13 13
19 18 18 18 17 17 17 17 17 16 16 16 16 16 15 15 15 15 15 15 15 15 15 15 14 14 14 14 14 14 14 14 14 14 14 13 13 13 13 13 13 13 13
19 18 18 18 17 17 17 17 17 17 16 16 16 16 16 16 16 15 15 15 15 15 15 15 14 14 14 14 14 14 14 14 14 13 14 13 13 13 13 13 13 13 12
19 18 18 18 17 17 17 17 17 17 16 16 16 16 16 16 16 15 15 15 15 15 15 15 15 14 14 14 14 14 14 14 13 13 13 13 13 13 13 13 13 13 12
18 18 18 18 18 17 17 17 17 16 16 16 16 16 16 16 16 15 15 15 15 15 15 15 15 14 14 14 14 14 14 13 13 13 13 13 13 13 13 13 12 12 12
18 18 18 18 17 17 17 17 17 16 16 16 16 16 16 16 15 15 15 15 15 15 15 15 15 14 14 14 14 14 14 13 13 13 13 13 13 13 12 12 12 12 12
17 17 17 17 17 17 17 17 17 16 16 16 16 16 15 15 15 15 15 15 15 15 15 15 14 14 14 14 14 14 13 13 13 13 13 13 13 13 12 12 12 12 12
17 17 17 17 17 17 17 17 16 16 16 16 15 15 15 15 15 15 15 15 15 15 15 14 14 14 14 14 14 14 13 13 13 13 13 13 13 12 12 12 11 11 11
17 17 17 17 17 17 17 16 16 16 16 15 15 15 15 15 15 15 15 14 14 14 14 14 14 14 14 14 14 13 13 13 13 12 12 12 12 12 12 12 11 11 11
17 16 16 16 16 16 16 16 16 16 15 15 15 15 15 15 15 14 14 14 14 14 14 14 14 14 14 13 13 13 13 13 12 12 12 12 12 12 12 12 11 11 11
16 16 16 16 16 16 16 16 16 15 15 15 15 15 14 14 14 14 14 14 14 13 13 13 13 13 13 13 13 13 13 12 12 12 12 12 12 12 11 11 11 11 10
15 15 15 15 15 15 15 15 15 15 15 15 14 14 14 14 14 14 14 14 13 13 13 13 13 13 13 13 13 12 12 12 12 12 12 11 11 11 11 11 10 10 10
15 15 15 15 15 15 15 15 15 15 14 14 14 14 14 14 14 14 14 13 13 13 13 13 13 12 12 12 12 12 12 12 11 11 11 11 11 10 10 10 10 9 9
15 14 14 14 14 14 14 14 14 14 14 14 14 14 13 13 13 13 13 13 13 13 13 13 12 12 12 12 12 11 11 11 11 11 10 10 10 10 9 9 9 9 9
Wind_Speed
5 5 6 7 7 7 7 6 5 4 3 2 2 2 2 1 2 2 2 2 2 3 3 3 3 2 3 3 4 3 4 3 3 3 4 5 5 6 5 5 6 7 8
6 7 8 8 7 7 7 6 5 4 3 2 1 1 1 1 1 1 2 2 2 3 3 3 3 3 3 3 3 2 2 2 1 1 1 2 3 3 4 4 5 6 6
7 9 9 9 8 8 7 6 5 4 3 3 2 2 2 2 2 2 1 2 2 3 3 3 3 3 2 2 2 2 1 1 1 1 1 0 1 2 3 4 4 5 5
8 9 10 10 9 8 7 7 6 5 4 3 3 3 2 1 1 1 2 2 3 3 2 2 3 2 2 2 2 2 1 0 1 1 1 2 2 1 2 3 4 5 5
8 9 10 10 9 8 8 7 7 5 4 4 3 3 2 1 1 1 2 2 3 2 2 2 2 2 2 2 2 2 1 1 1 1 1 2 1 0 0 2 2 3 4
9 9 9 9 8 8 8 7 7 6 5 4 4 4 3 3 2 2 2 2 2 2 2 2 2 2 2 2 2 2 2 2 2 1 1 1 1 1 0 1 2 2 3
9 10 10 10 9 9 8 8 8 7 6 6 5 5 4 4 3 3 3 3 2 2 2 2 2 2 2 2 2 2 2 2 2 2 2 2 2 1 0 1 2 2 2
8 10 10 10 10 10 9 8 8 7 7 6 6 5 5 4 3 3 3 3 2 2 3 2 3 3 3 3 2 2 2 2 2 3 2 2 2 1 1 0 1 1 1
8 9 10 10 10 10 9 9 8 7 7 7 6 6 5 4 4 4 3 3 3 2 3 3 3 3 3 2 2 2 2 2 2 2 2 2 2 2 1 1 1 1 0
7 9 9 9 9 9 9 8 7 7 6 6 6 5 5 5 4 4 4 4 4 3 4 4 4 4 3 3 2 1 1 2 2 2 2 2 1 1 1 0 1 2 2
7 8 8 8 8 8 8 8 7 7 6 6 6 6 5 5 5 4 4 4 4 4 4 4 4 3 3 3 3 2 2 2 2 2 2 2 1 1 1 0 0 1 1
6 7 8 8 8 8 8 8 8 7 7 6 6 6 5 6 5 5 5 5 5 5 5 4 4 4 3 3 3 2 2 2 1 1 1 1 2 1 0 0 0 0 0
6 6 7 7 8 8 8 8 8 8 7 7 6 6 6 6 6 5 5 5 5 5 5 4 4 4 4 3 3 3 3 2 2 1 1 1 2 2 1 1 1 1 1
6 7 7 7 7 7 8 8 8 7 7 7 7 6 6 6 6 5 5 5 5 5 5 5 4 4 4 4 4 3 3 3 2 1 1 2 2 2 2 2 2 2 1
6 7 7 7 7 7 7 8 8 8 8 8 7 6 6 5 5 5 5 5 5 5 5 5 5 4 4 4 4 4 3 3 2 2 2 1 0 2 1 1 2 2 2
5 6 7 7 7 8 8 7 8 8 8 8 7 6 6 5 5 5 6 5 5 5 5 5 5 5 4 3 3 4 4 4 3 3 2 2 3 3 3 1 2 3 3
4 5 6 6 7 7 7 8 7 8 8 8 7 7 6 6 6 5 5 5 5 5 5 5 5 5 5 6 5 5 4 4 3 3 3 2 2 3 3 4 6 4 3
4 4 4 5 6 6 7 7 8 8 8 8 7 7 7 7 6 5 5 5 5 5 5 5 5 5 5 6 6 5 5 4 4 4 3 4 4 3 3 3 3 2 2
3 4 4 5 6 6 6 7 8 8 8 7 7 7 7 7 7 6 6 5 5 5 5 5 5 5 5 7 6 6 4 4 4 4 3 4 4 2 3 4 4 3 2
2 3 3 4 5 6 7 7 7 7 7 7 7 7 7 7 7 7 6 5 5 5 4 5 5 5 5 7 7 6 4 4 4 3 4 3 4 3 4 5 5 4 4
2 3 4 4 4 6 7 7 7 7 7 6 6 6 6 6 6 6 5 5 5 5 4 4 4 5 4 6 7 6 5 4 4 4 4 3 4 5 5 6 5 3 3
2 3 3 3 4 5 7 6 6 5 5 6 6 6 6 6 5 5 5 5 5 5 4 4 4 4 4 4 6 7 6 5 5 4 3 2 4 4 5 4 3 3 4
2 3 3 4 4 4 5 6 5 4 5 6 6 6 6 6 6 6 5 5 5 5 4 4 4 4 4 4 6 6 6 6 4 3 1 1 3 4 4 5 6 6 5
3 3 4 4 4 4 3 3 3 4 5 6 6 5 6 6 6 5 5 5 5 5 5 5 4 4 4 3 3 3 4 4 4 3 2 3 3 4 3 4 5 5 4
3 3 4 4 4 4 3 3 3 4 5 5 5 5 5 5 5 5 4 5 5 4 5 5 5 4 5 3 2 3 4 3 3 3 3 3 3 4 4 4 4 4 4
3 4 4 3 3 3 3 3 3 4 5 5 5 4 4 4 5 4 4 1 2 2 3 2 3 3 1 3 4 4 3 2 4 3 4 4 4 4 4 4 4 4 5
Wind_Direction
174 164 165 168 166 167 168 161 158 154 146 139 152 129 114 107 87 75 73 73 77 87 93 98 106 109 106 112 115 114 110 103 109 117 106 91 74 68 64 57 58 60 53
176 167 170 170 172 169 171 166 168 169 163 156 150 146 126 121 93 93 101 92 95 93 95 97 106 112 111 118 115 119 118 109 109 171 162 144 116 76 66 65 57 58 59
190 179 179 177 176 176 176 177 182 176 171 166 158 155 134 144 132 126 107 86 87 84 90 98 112 113 121 118 117 133 147 131 111 17 321 250 97 113 87 66 66 61 56
199 187 183 185 184 182 185 188 187 185 180 184 195 191 187 157 139 135 123 123 104 91 91 100 105 112 108 117 123 113 120 112 123 111 28 21 62 168 128 108 81 67 57
197 191 189 189 186 181 186 192 187 187 187 193 194 206 200 171 138 127 135 132 109 100 103 101 105 108 111 111 104 103 82 72 50 81 106 92 95 336 99 121 113 96 73
190 189 186 183 181 180 184 187 187 188 190 198 200 204 193 185 171 168 152 148 131 124 120 118 120 119 114 113 102 100 89 60 60 54 83 98 83 86 106 129 128 106 86
184 183 182 182 182 183 186 188 190 192 194 200 204 203 202 201 196 191 168 166 156 147 141 139 138 123 112 106 106 104 92 100 85 61 66 65 52 41 87 132 122 117 118
183 183 182 183 185 186 188 190 190 193 195 201 205 205 200 204 205 199 190 185 174 161 155 152 137 127 125 126 119 110 99 97 99 84 77 82 66 50 64 56 137 150 133
181 182 181 184 185 187 189 191 190 194 195 200 202 202 200 200 200 199 192 186 181 165 157 152 143 133 133 136 135 118 109 100 95 97 97 90 83 70 53 33 303 299 242
178 179 181 185 187 187 188 190 193 198 197 198 197 197 201 199 202 201 192 186 181 170 166 164 160 154 150 145 138 128 109 119 107 103 109 100 93 83 86 52 334 323 316
176 178 179 182 183 185 186 188 192 196 195 195 194 194 196 197 198 199 198 192 184 179 175 174 172 164 161 157 154 160 155 148 138 144 139 130 109 119 128 132 53 12 354
169 174 176 177 179 185 189 190 192 191 191 193 192 193 190 195 199 195 195 191 187 187 185 176 176 171 177 177 172 174 176 172 171 166 167 164 151 160 154 166 160 67 355
162 168 172 179 182 184 187 190 192 191 186 186 190 190 192 197 199 199 194 190 188 184 183 185 186 186 189 188 189 193 195 195 205 211 209 204 189 188 177 198 203 178 157
167 168 173 179 184 185 187 188 188 188 184 183 188 192 194 194 195 194 193 192 191 189 188 190 192 197 200 200 196 199 204 204 208 214 221 227 223 229 214 201 202 201 195
180 179 180 179 180 184 188 188 188 186 184 185 188 192 189 182 184 182 189 187 187 195 194 193 194 198 207 214 207 201 207 210 205 204 210 215 12 2 302 254 223 213 218
187 186 186 182 183 184 186 184 185 186 184 185 187 183 180 176 179 182 183 181 187 195 195 199 198 199 203 169 204 232 213 211 207 209 210 193 183 172 185 222 274 280 252
183 182 187 188 189 187 185 182 183 181 185 186 182 179 178 176 180 180 176 178 188 194 199 202 201 203 183 165 189 223 226 222 225 226 222 216 207 202 201 185 195 214 243
186 186 185 185 188 185 182 180 177 179 183 185 182 181 181 179 178 178 180 187 192 190 198 200 198 197 181 168 184 205 222 221 223 229 232 229 230 229 231 230 228 235 231
198 192 191 186 183 178 177 175 176 179 182 184 186 183 184 181 180 183 188 190 191 191 196 195 197 200 192 177 187 206 214 218 225 233 237 240 239 169 206 232 232 234 237
181 175 176 176 177 174 172 175 177 180 187 190 190 185 183 182 186 190 191 186 187 193 194 193 201 205 204 168 183 211 217 225 228 229 235 231 235 207 217 233 235 238 244
155 159 162 166 171 171 173 179 181 188 190 187 187 184 183 188 188 188 188 185 185 190 198 200 204 209 207 175 186 211 223 229 238 238 238 224 181 207 232 250 248 246 255
153 160 161 162 164 170 176 182 189 190 182 181 185 188 188 187 186 183 184 187 186 191 200 208 207 210 204 199 193 207 229 252 241 247 246 217 167 199 222 234 211 212 236
162 164 165 161 159 167 181 186 180 178 179 183 187 190 191 190 188 185 184 188 192 202 209 211 216 215 209 195 187 201 216 231 239 245 290 197 183 199 213 198 205 220 232
173 174 172 163 158 161 169 173 168 174 183 186 185 187 190 191 191 190 195 197 199 206 213 215 219 220 211 204 193 201 205 202 218 229 186 186 213 223 218 206 216 231 236
182 184 183 178 171 167 170 166 163 178 186 187 186 190 191 189 191 192 204 210 210 214 217 217 217 217 223 207 195 214 211 211 208 207 218 227 227 229 229 231 232 231 229
185 187 188 191 187 179 179 174 173 185 191 191 190 191 192 191 193 191 194 203 236 197 229 245 239 225 213 141 175 205 213 172 162 193 223 230 235 238 240 241 239 237 238
Height
1541 1542 1543 1545 1546 1548 1549 1550 1552 1553 1554 1555 1556 1556 1557 1557 1557 1557 1557 1556 1557 1556 1556 1556 1556 1556 1556 1556 1557 1557 1557 1557 1557 1558 1558 1558 1557 1556 1556 1555 1555 1554 1553
1540 1541 1543 1544 1546 1548 1549 1550 1552 1553 1554 1555 1556 1556 1557 1557 1557 1557 1557 1557 1557 1557 1557 1557 1557 1557 1557 1557 1557 1557 1558 1558 1558 1559 1559 1559 1560 1558 1558 1557 1556 1555 1554
1538 1540 1542 1543 1545 1547 1548 1550 1551 1553 1554 1554 1556 1556 1557 1557 1558 1558 1557 1557 1557 1557 1558 1558 1558 1558 1558 1558 1558 1558 1558 1558 1558 1558 1560 1559 1559 1560 1560 1558 1558 1556 1555
1536 1538 1540 1542 1544 1546 1547 1549 1551 1552 1553 1554 1555 1556 1557 1558 1558 1558 1558 1558 1558 1558 1558 1558 1559 1559 1559 1559 1559 1559 1559 1559 1559 1558 1558 1560 1559 1560 1561 1561 1559 1558 1557
1534 1536 1538 1541 1543 1545 1546 1548 1550 1551 1552 1553 1554 1555 1557 1557 1557 1558 1558 1558 1558 1558 1558 1559 1559 1559 1559 1559 1559 1559 1559 1559 1559 1559 1559 1559 1559 1560 1561 1561 1561 1560 1559
1532 1535 1537 1539 1541 1543 1545 1547 1549 1550 1551 1552 1553 1555 1556 1556 1557 1558 1558 1558 1558 1558 1559 1559 1559 1560 1560 1560 1560 1560 1560 1559 1559 1559 1560 1560 1560 1561 1561 1561 1561 1561 1560
1530 1533 1535 1537 1540 1542 1544 1545 1547 1549 1550 1551 1553 1554 1555 1556 1557 1557 1558 1558 1558 1559 1559 1559 1559 1560 1560 1560 1560 1560 1560 1560 1560 1560 1560 1560 1560 1560 1561 1561 1561 1561 1561
1528 1531 1533 1535 1538 1540 1542 1544 1546 1547 1549 1550 1552 1553 1554 1555 1556 1556 1557 1558 1558 1558 1559 1559 1559 1560 1560 1560 1560 1561 1561 1561 1561 1560 1560 1560 1560 1560 1560 1561 1562 1562 1562
1527 1529 1532 1534 1536 1538 1540 1542 1544 1546 1547 1549 1550 1552 1553 1554 1555 1555 1556 1557 1557 1558 1558 1559 1559 1560 1560 1560 1561 1561 1561 1561 1561 1561 1561 1561 1560 1560 1560 1561 1561 1563 1562
1526 1528 1530 1532 1535 1537 1539 1541 1543 1544 1546 1548 1549 1550 1551 1553 1553 1554 1555 1556 1557 1558 1558 1559 1559 1560 1560 1561 1561 1561 1561 1561 1561 1561 1561 1561 1561 1561 1561 1561 1561 1561 1562
1525 1527 1529 1531 1533 1536 1537 1539 1541 1543 1545 1546 1548 1549 1550 1551 1552 1553 1554 1555 1556 1557 1558 1558 1559 1560 1560 1561 1561 1561 1561 1561 1562 1562 1561 1561 1561 1561 1561 1561 1561 1560 1561
1524 1526 1528 1530 1532 1534 1536 1538 1539 1541 1543 1544 1546 1547 1548 1550 1551 1552 1553 1554 1555 1556 1557 1558 1558 1559 1559 1560 1560 1561 1561 1561 1561 1561 1561 1561 1561 1561 1561 1560 1560 1560 1560
1523 1525 1526 1528 1530 1532 1534 1536 1537 1539 1541 1543 1544 1546 1547 1548 1549 1551 1552 1553 1554 1555 1556 1557 1558 1558 1559 1559 1560 1560 1560 1561 1561 1561 1561 1561 1560 1560 1560 1560 1560 1559 1559
1522 1523 1524 1526 1528 1530 1532 1533 1535 1537 1539 1541 1542 1544 1545 1546 1548 1549 1550 1552 1553 1553 1554 1555 1556 1557 1558 1558 1559 1559 1559 1560 1560 1560 1560 1560 1560 1560 1559 1559 1559 1559 1558
1520 1521 1523 1524 1526 1527 1529 1531 1533 1535 1537 1539 1540 1542 1544 1545 1546 1547 1548 1550 1551 1552 1553 1554 1555 1555 1556 1557 1558 1558 1558 1558 1559 1558 1558 1558 1558 1558 1558 1558 1558 1558 1557
1518 1519 1521 1522 1523 1525 1527 1529 1530 1532 1535 1537 1538 1540 1541 1543 1544 1545 1547 1548 1549 1550 1551 1552 1553 1554 1554 1555 1556 1556 1557 1557 1557 1557 1557 1557 1557 1556 1556 1556 1556 1556 1556
1516 1517 1519 1520 1522 1523 1525 1526 1528 1530 1532 1534 1536 1537 1539 1541 1542 1544 1545 1546 1547 1548 1550 1550 1551 1552 1553 1553 1554 1554 1555 1555 1556 1556 1556 1555 1555 1555 1555 1554 1554 1553 1553
1514 1515 1516 1518 1520 1521 1523 1524 1526 1528 1530 1532 1533 1535 1537 1538 1540 1541 1542 1544 1545 1546 1547 1549 1550 1550 1551 1551 1552 1552 1553 1553 1554 1554 1554 1554 1554 1553 1553 1553 1552 1552 1551
1512 1513 1514 1516 1517 1519 1520 1522 1523 1525 1527 1529 1531 1532 1534 1536 1537 1539 1540 1542 1543 1544 1545 1546 1547 1548 1549 1549 1550 1551 1551 1551 1552 1552 1552 1551 1551 1551 1550 1550 1550 1549 1549
1510 1511 1512 1513 1515 1516 1518 1520 1521 1523 1524 1526 1528 1530 1532 1533 1535 1536 1538 1539 1541 1542 1543 1544 1545 1546 1547 1547 1548 1548 1549 1549 1549 1549 1549 1548 1548 1548 1547 1547 1547 1546 1546
1508 1509 1510 1511 1512 1514 1516 1517 1519 1520 1522 1524 1526 1527 1529 1531 1533 1534 1535 1537 1538 1539 1540 1541 1542 1543 1544 1544 1545 1546 1546 1546 1546 1546 1546 1546 1545 1545 1544 1544 1544 1543 1543
1506 1507 1508 1509 1510 1512 1513 1515 1516 1518 1520 1521 1523 1525 1526 1528 1530 1531 1533 1534 1535 1536 1537 1538 1539 1540 1541 1541 1542 1542 1543 1543 1543 1543 1543 1542 1542 1541 1541 1540 1540 1540 1539
1504 1505 1506 1507 1508 1509 1511 1513 1514 1515 1517 1518 1520 1522 1524 1525 1527 1528 1530 1531 1532 1533 1534 1535 1535 1536 1537 1537 1538 1539 1539 1539 1539 1539 1539 1539 1538 1538 1537 1537 1536 1536 1535
1502 1503 1504 1505 1506 1507 1509 1510 1512 1513 1514 1516 1517 1519 1521 1522 1524 1525 1526 1528 1529 1529 1530 1531 1532 1532 1533 1534 1534 1534 1535 1535 1535 1535 1534 1534 1534 1534 1533 1533 1532 1532 1531
1500 1501 1502 1503 1504 1505 1507 1508 1509 1510 1512 1513 1515 1516 1518 1519 1520 1521 1523 1524 1525 1526 1527 1528 1528 1529 1529 1530 1530 1531 1531 1531 1531 1531 1530 1530 1530 1529 1529 1529 1528 1528 1527
1498 1499 1500 1500 1502 1503 1504 1505 1506 1508 1509 1511 1512 1513 1515 1516 1517 1518 1519 1520 1521 1522 1523 1524 1525 1525 1526 1526 1526 1527 1527 1527 1527 1527 1526 1526 1525 1525 1525 1524 1524 1523 1522